Probability
0 0 0 0 0 0 0 0 0 0 0 0 0 0 0 0 0 0 0 0 0 0 0 0 0 0 0 0 0 0 0 0 0 0 0 0 0 0 0 0 0 0 0
1 0 0 0 0 0 0 0 0 0 0 0 0 0 0 0 0 0 0 0 0 0 0 0 0 0 0 0 0 0 0 0 0 0 0 0 0 0 0 0 0 0 0
2 1 0 0 0 0 0 0 0 0 0 0 0 0 0 0 0 0 0 0 0 0 0 0 0 0 0 0 0 0 0 0 0 0 0 0 0 0 0 0 0 0 0
3 2 1 0 0 0 0 0 0 0 0 0 0 0 0 0 0 0 0 0 0 0 0 0 0 0 0 0 0 0 0 0 0 0 0 0 0 0 0 0 0 0 0
4 3 1 1 0 0 0 0 0 0 0 0 0 0 0 0 0 0 0 0 0 0 0 0 0 0 0 1 0 0 0 0 0 0 0 0 0 0 0 0 0 0 0
4 3 3 2 2 1 1 2 1 1 1 0 0 0 0 0 0 0 0 0 0 0 0 0 0 0 0 0 0 0 0 0 0 0 0 0 0 0 0 0 0 0 0
5 4 4 4 4 4 4 3 3 2 2 1 1 1 1 0 0 0 0 0 0 0 0 0 0 0 0 0 0 0 0 0 0 0 0 0 0 0 0 0 0 0 0
6 5 4 4 6 7 6 4 4 4 4 3 3 2 1 0 0 0 0 0 0 0 0 0 0 0 0 0 0 0 0 0 0 0 0 0 0 0 0 0 0 0 0
8 6 4 5 8 9 7 5 5 6 6 5 4 1 0 0 0 0 0 0 0 0 0 0 0 0 0 0 0 0 0 0 0 0 0 0 0 0 0 0 0 0 0
7 5 4 4 6 8 7 7 7 7 7 7 5 2 1 0 0 0 0 0 0 0 0 0 0 0 0 0 0 0 0 0 0 0 0 0 0 0 0 0 0 0 0
4 3 2 2 3 4 5 7 8 8 7 7 6 3 2 1 0 0 0 0 0 0 0 0 0 0 0 0 0 0 0 0 0 0 0 0 0 0 0 0 0 0 0
3 2 0 0 0 1 2 5 7 7 7 7 6 4 2 1 0 0 0 0 0 0 0 0 0 0 0 0 0 0 0 0 0 0 0 0 0 0 0 0 0 0 0
6 4 2 1 1 2 4 5 7 8 8 7 5 4 2 1 0 0 0 0 0 0 0 0 0 0 0 0 0 0 0 0 0 0 0 0 0 0 0 0 0 0 0
7 5 3 3 3 4 5 6 6 7 7 6 5 4 3 1 1 0 0 0 0 0 0 0 0 0 0 0 0 0 0 0 0 0 0 0 0 0 0 0 0 0 0
6 4 3 2 2 3 4 5 5 4 4 5 5 4 3 3 2 1 0 0 0 0 0 0 0 0 0 0 0 0 0 0 0 0 0 0 0 0 0 0 0 0 0
4 4 3 1 1 2 3 3 2 2 2 3 4 3 3 3 3 2 1 0 0 0 0 0 0 0 0 0 0 0 0 0 0 0 0 0 0 0 0 0 0 0 0
3 4 3 3 3 3 3 1 1 1 0 1 3 3 3 3 3 3 2 0 0 0 0 0 0 0 0 0 0 0 0 0 0 0 0 0 0 0 0 0 0 0 0
2 3 3 3 4 5 4 2 0 0 0 1 3 4 4 3 3 2 1 0 0 0 0 0 0 0 0 0 0 0 0 0 0 0 0 0 0 0 0 0 0 0 0
1 2 3 3 4 5 6 4 2 0 0 1 3 5 4 3 1 1 0 0 0 0 0 0 0 0 0 0 0 0 0 0 0 0 0 0 0 0 0 0 0 0 0
1 2 3 3 4 5 6 5 3 1 1 2 4 4 4 3 1 0 0 0 0 0 0 0 0 0 0 0 0 0 0 0 0 0 0 0 0 0 0 0 0 0 0
2 3 3 4 4 4 5 5 4 3 2 3 3 3 3 2 1 0 0 0 0 0 0 0 0 0 0 0 0 0 0 0 0 0 0 0 0 0 0 0 0 0 0
3 3 3 3 3 3 4 4 3 3 3 3 3 3 2 1 0 0 0 0 0 0 0 0 0 0 0 0 0 0 0 0 0 0 0 0 0 0 0 0 0 0 0
2 2 1 2 2 2 2 2 2 2 2 2 2 1 1 0 0 0 0 0 0 0 0 0 0 0 0 0 0 0 0 0 0 0 0 0 0 0 0 0 0 0 0
1 1 0 0 1 1 1 1 1 1 1 1 1 0 0 0 0 0 0 0 0 0 0 0 0 0 0 0 0 0 0 0 0 0 0 0 0 0 0 0 0 0 0
0 0 0 0 0 0 0 0 0 0 0 0 0 0 0 0 0 0 0 0 0 0 0 0 0 0 0 0 0 0 0 0 0 0 0 0 0 0 0 0 0 0 0
0 0 0 0 0 0 0 0 0 0 0 0 0 0 0 0 0 0 0 0 0 0 0 0 0 0 0 0 0 0 0 0 0 0 0 0 0 0 0 0 0 0 0
Wind_Speed
7 7 6 6 6 5 5 5 4 5 4 4 3 3 3 3 4 4 4 7 6 4 4 3 3 2 2 1 1 1 1 1 0 1 1 2 3 3 4 4 4 4 4
6 6 6 6 5 5 5 4 4 4 3 2 2 2 2 2 3 3 4 5 6 5 4 4 3 3 2 2 2 1 1 1 1 1 2 2 3 4 4 4 4 4 4
7 6 6 5 5 5 5 4 3 3 2 2 2 2 2 2 2 3 4 4 4 4 4 4 3 2 2 2 2 2 2 2 2 2 2 3 4 4 5 5 5 5 5
8 6 5 5 5 5 4 3 3 3 2 2 2 1 1 1 1 2 2 3 3 3 3 4 3 2 1 2 2 2 2 2 2 2 3 3 4 5 5 5 6 6 6
8 6 5 5 6 4 4 4 3 3 3 3 2 2 1 1 1 1 1 2 3 3 3 4 4 2 1 1 2 3 2 2 2 3 4 4 4 4 5 6 6 6 6
8 6 5 6 6 5 4 4 4 3 3 3 2 2 1 1 1 1 1 1 2 3 3 3 3 2 2 1 1 3 3 3 2 3 3 3 4 4 5 6 6 6 6
8 7 6 6 5 5 5 5 4 4 3 2 2 1 1 2 2 2 1 1 2 2 2 2 2 2 1 2 0 2 3 3 3 3 2 3 3 4 5 5 5 5 6
8 7 7 6 6 5 6 5 5 3 3 3 3 2 1 1 1 1 1 1 1 2 2 2 2 2 2 1 1 1 2 3 4 3 3 2 3 4 5 5 5 6 7
8 7 8 7 6 6 6 6 6 5 4 3 3 3 3 3 1 1 2 2 2 2 2 2 2 2 2 2 1 1 2 4 4 4 3 3 4 5 5 5 6 6 6
7 8 8 7 7 5 6 6 5 4 5 4 3 2 2 2 2 1 1 2 2 2 2 2 2 2 2 2 3 4 4 4 4 4 4 4 4 5 6 6 6 6 6
7 7 8 7 7 5 6 7 6 6 5 5 4 3 2 2 2 3 2 1 1 1 2 2 2 2 2 2 2 4 4 4 4 4 4 4 5 5 6 7 7 7 7
5 7 7 7 7 6 6 6 6 7 5 5 4 3 3 3 3 3 3 3 2 2 1 2 2 2 2 2 3 4 4 4 4 4 4 5 6 6 7 8 8 8 8
5 8 7 6 6 6 6 5 6 6 6 6 5 4 4 3 2 3 3 2 2 1 1 1 2 3 2 2 2 3 3 3 4 4 4 5 6 7 8 8 9 9 9
6 8 8 7 7 7 6 6 4 5 5 6 6 5 3 3 3 3 3 3 2 1 2 2 1 2 2 2 2 3 2 4 4 5 6 6 7 8 8 8 8 9 9
5 8 8 7 7 7 7 6 5 5 5 5 5 5 3 2 3 2 2 3 4 3 3 2 2 2 2 3 2 2 2 4 4 5 6 6 6 7 7 7 8 8 8
6 7 7 8 8 7 7 6 5 5 5 5 4 5 4 3 3 3 2 2 2 3 2 1 2 2 2 3 3 2 2 3 3 4 5 5 5 6 7 6 6 7 7
5 7 7 8 8 8 8 7 7 7 7 6 5 6 5 4 3 3 3 2 2 2 2 1 1 2 2 2 2 2 2 1 1 3 4 4 4 5 5 5 5 6 6
4 6 7 7 7 8 8 8 8 8 8 7 7 6 6 5 5 4 3 3 2 2 3 3 1 1 2 2 2 1 1 1 1 2 3 4 4 4 5 5 5 5 6
3 4 5 6 7 7 7 7 7 7 7 7 7 7 7 7 5 4 4 3 2 2 2 3 2 1 1 1 1 1 1 1 1 2 2 3 3 3 4 5 6 6 6
3 3 4 5 5 6 6 6 6 7 6 6 6 6 6 7 6 6 5 4 4 3 3 3 2 2 2 1 1 1 1 0 0 1 1 2 2 2 3 4 5 6 6
2 3 4 4 4 4 5 6 6 7 7 7 6 5 5 7 7 5 4 5 5 3 3 3 3 2 2 2 3 2 2 1 0 0 1 0 1 1 1 2 4 4 5
2 2 3 4 4 3 7 8 7 6 7 8 7 6 6 7 8 8 7 6 5 4 4 3 3 3 3 3 3 2 2 2 2 1 1 1 1 1 0 1 2 3 3
2 2 2 3 4 5 8 9 9 6 7 7 7 6 5 6 7 6 7 6 4 4 4 4 3 3 3 3 4 3 3 2 2 2 2 1 1 1 1 1 3 2 2
2 2 2 3 4 5 8 9 9 6 5 6 6 6 7 7 6 7 6 5 4 3 3 2 3 2 2 2 3 4 4 2 1 0 2 1 1 1 1 0 3 4 3
2 2 2 4 4 5 7 8 8 5 5 5 5 5 6 7 10 11 8 6 5 3 4 5 5 4 4 4 4 4 3 3 1 1 1 2 1 1 0 1 2 4 5
2 2 3 3 4 4 7 8 7 4 5 5 4 4 6 8 11 11 7 7 6 4 4 4 3 3 2 3 4 3 4 3 2 2 2 2 1 1 0 1 1 1 2
Wind_Direction
153 154 158 160 169 165 161 182 200 188 180 183 191 147 126 122 120 128 142 152 148 155 166 180 182 187 191 198 205 200 196 201 235 343 351 347 340 336 331 330 333 338 346
159 159 158 163 170 161 167 184 189 172 173 171 162 144 144 133 132 135 140 156 159 163 180 195 202 214 215 221 221 223 220 226 243 270 294 306 315 317 320 316 315 318 322
161 159 158 163 166 162 169 177 176 157 158 145 141 145 138 139 143 148 149 155 166 177 183 190 199 201 224 238 239 242 233 229 247 257 275 290 294 298 300 307 313 309 305
160 157 156 163 165 160 160 165 156 148 143 144 164 166 149 138 147 158 153 149 152 161 182 186 182 192 224 257 262 272 256 242 246 251 269 283 292 295 296 298 299 303 298
162 158 159 163 160 153 156 162 155 154 157 169 169 156 152 154 176 150 146 150 143 142 147 171 174 170 158 267 291 294 279 280 271 264 271 281 292 300 300 296 299 300 298
165 160 159 165 158 152 156 156 159 160 161 164 161 157 175 175 169 171 190 151 135 139 141 145 159 176 160 110 308 304 307 312 304 296 296 298 299 301 306 310 307 304 303
168 163 163 164 158 158 163 164 163 165 168 150 131 158 236 211 186 182 170 141 143 137 127 126 131 137 155 168 24 332 324 318 312 314 314 321 314 310 313 318 320 317 313
170 166 163 165 163 162 169 173 164 161 172 162 155 153 196 260 230 169 142 131 135 122 123 119 112 110 105 121 97 30 352 330 327 324 321 326 327 324 314 315 316 318 316
173 168 167 166 168 168 173 176 170 170 174 179 179 168 170 199 169 178 183 162 173 159 152 142 137 125 109 96 90 52 18 353 331 327 333 337 337 337 338 332 322 318 318
179 171 168 168 172 173 176 180 173 171 171 181 190 198 176 143 148 167 205 194 179 176 167 147 131 119 102 91 84 70 40 9 348 337 335 342 349 349 348 345 338 335 332
182 173 172 170 173 176 181 181 175 177 183 185 181 174 185 181 178 167 194 199 210 219 164 137 124 109 90 82 81 62 40 17 2 352 351 357 4 4 360 1 1 354 346
184 180 178 177 175 177 184 184 181 181 187 190 185 179 172 173 187 183 189 191 196 202 167 141 128 118 106 90 82 64 40 21 11 3 7 20 23 18 14 12 9 3 358
190 185 182 182 178 181 184 179 182 182 182 185 187 190 189 189 169 164 168 185 183 178 161 152 129 121 111 100 90 65 44 38 29 21 30 42 44 42 32 21 14 11 10
193 184 182 183 183 182 182 178 179 181 178 184 186 182 178 177 166 169 161 160 174 202 193 184 111 114 109 101 87 63 48 61 55 50 51 58 56 47 37 27 22 18 17
188 182 181 183 183 181 179 175 181 182 178 179 173 168 167 166 153 154 146 157 168 189 211 176 139 125 116 105 91 70 67 73 63 63 69 71 63 53 44 37 31 26 23
186 179 181 182 180 177 176 176 173 174 172 175 167 166 168 162 154 150 155 162 161 167 185 155 134 135 121 115 100 81 82 86 77 85 80 77 68 58 48 38 32 29 27
188 181 183 183 180 178 176 177 177 172 172 173 168 167 166 155 158 160 154 158 165 155 175 156 92 106 109 113 94 72 66 61 86 97 90 81 74 63 50 39 34 34 35
190 188 180 182 182 179 177 180 178 176 175 179 175 166 167 160 164 162 163 166 165 161 160 172 147 118 105 124 112 92 55 53 82 101 100 88 79 67 55 45 40 48 52
176 179 175 179 179 177 177 180 175 174 176 177 173 171 166 163 168 162 155 155 156 150 143 147 149 126 113 116 110 74 50 33 74 115 114 91 79 70 67 60 53 56 62
170 173 172 173 173 171 175 176 169 169 170 167 161 161 158 163 166 161 159 159 154 152 148 144 151 151 143 132 149 182 204 160 28 60 98 94 89 77 75 71 62 58 66
166 167 167 163 164 166 173 172 168 165 161 153 146 144 141 140 140 145 152 156 155 159 156 157 164 162 171 173 196 182 181 158 245 168 108 120 124 78 56 74 70 66 70
144 150 166 162 166 170 166 167 161 158 158 153 148 141 139 137 138 138 139 140 147 158 166 167 178 188 197 188 166 160 148 150 229 217 144 225 149 168 194 131 114 92 81
136 140 151 152 158 161 163 162 156 153 154 153 151 151 149 148 143 136 136 127 117 122 145 159 173 187 176 171 156 161 175 182 205 182 134 207 182 206 218 158 156 153 136
129 129 140 136 132 142 146 148 144 141 144 147 152 156 153 148 153 148 141 133 123 106 109 114 138 139 131 137 156 166 166 135 79 96 140 176 192 205 175 162 194 188 176
105 111 129 138 133 136 147 147 142 136 134 137 143 151 152 150 159 153 141 138 132 125 109 113 112 111 114 130 138 124 135 143 179 213 174 157 169 148 148 216 221 206 196
111 108 100 122 132 138 152 153 151 141 139 140 137 142 153 159 162 159 152 152 157 163 147 136 121 106 102 113 127 142 159 162 163 198 186 152 146 121 168 274 215 212 209